Location: Central Coast
(33.3208°S, 151.2336°E)
Time: 20:30:49
(UTC+11:00)

OTV 5 (USA 277) - Visible Passes

Search period start: 17 October 2017 00:00
Search period end: 27 October 2017 00:00
Orbit: 404 x 417 km, 43.0° (Epoch: 07 September)

Date Brightness Start Highest point End Pass type
(mag) Time Alt. Az. Time Alt. Az. Time Alt. Az.
17 Oct ? 05:00:05 29° WSW 05:01:18 43° SSW 05:04:31 10° SE visible
18 Oct ? 04:11:19 37° SE 04:11:19 37° SE 04:13:32 10° SE visible
18 Oct ? 05:45:25 10° WSW 05:47:56 19° SSW 05:50:25 10° SE visible
19 Oct ? 04:55:15 18° SW 04:56:42 23° SSW 04:59:28 10° SE visible
20 Oct ? 04:06:25 26° S 04:06:25 26° S 04:08:31 10° SE visible
20 Oct ? 05:41:23 10° SW 05:43:30 16° S 05:45:38 10° SE visible
21 Oct ? 03:17:33 10° SE 03:17:33 10° SE 03:17:34 10° SE visible
21 Oct ? 04:50:18 11° SW 04:52:14 17° S 04:54:30 10° SE visible
22 Oct ? 04:01:25 19° S 04:01:25 19° S 04:03:29 10° SE visible
22 Oct ? 05:36:54 10° SW 05:39:07 16° S 05:41:19 10° SE visible
23 Oct ? 04:45:44 10° SW 04:47:50 15° S 04:49:57 10° SE visible
24 Oct ? 03:56:28 16° S 03:56:33 16° S 03:58:41 10° SE visible
24 Oct ? 05:32:00 10° SW 05:34:40 21° SSE 05:37:21 10° ESE visible
25 Oct ? 04:41:01 10° SW 04:43:26 18° S 04:45:51 10° ESE visible
26 Oct ? 03:51:43 16° S 03:52:10 16° S 03:54:23 10° SE visible
26 Oct ? 05:26:56 10° SW 05:30:06 37° SSE 05:33:14 10° E visible
